weather.gov     
National Weather Service

Terminal Aerodrome Forecast
NWS Homepage
This page is being discontinued on March 12, 2014.
The same data is available at this site. Please update your bookmarks.
Thank you, and we apologize for the inconvenience.
Please send an email to SR-SRH.Webmaster@noaa.gov with any concerns.


Current Version
Previous Version:    01  02  03  04  05  06  07  08  09  10  11  12  13  14  15  16  17  18  19  20  21  22  23  24  25  26  27  28  29  30  
   31  32  33  34  35  
[Printable]
501
FTUS45 KTFX 021400 AAA
TAFLWT
TAF AMD
KLWT 021415Z 0214/0312 23014KT 6SM -RA SCT005 BKN050
      TEMPO 0214/0217 2SM -SHRASN BR BKN005
     FM021700 35012KT P6SM -RASN SCT015 OVC025
      TEMPO 0218/0220 3SM -SN BR BKN010
     FM022200 32011KT P6SM SCT030 BKN060
     FM030100 26008KT P6SM FEW120=


U.S. Dept. of Commerce
NOAA National Weather Service
1325 East West Highway
Silver Spring, MD 20910
E-mail: w-nws.webmaster@noaa.gov
Page last modified: May 16, 2007
NATIONAL WEATHER SERVICE: for Safety, for Work, for Fun - FOR LIFE